| time (UTC) | temp F | wind direction | speed knots | gust knots | rain 1hr in | rain 24hr in | rain mn in | humidity % | barometer mb |
| 20260506073153 | 55 | 248 | 0.0 | 0.0 | 0.00 | 0.00 | 0.00 | 42 | 1025.6 |
| 20260506072649 | 55 | 265 | 0.0 | 0.0 | 0.00 | 0.00 | 0.00 | 42 | 1025.3 |
| 20260506072142 | 54 | 235 | 0.0 | 0.0 | 0.00 | 0.00 | 0.00 | 44 | 1025.3 |
| 20260506071637 | 54 | 245 | 0.0 | 0.0 | 0.00 | 0.00 | 0.00 | 45 | 1025.6 |
| 20260506071133 | 54 | 270 | 0.0 | 0.0 | 0.00 | 0.00 | 0.00 | 44 | 1025.6 |
| 20260506070626 | 54 | 275 | 0.0 | 0.0 | 0.00 | 0.00 | 0.00 | 45 | 1025.3 |
| 20260506070121 | 55 | 253 | 0.0 | 0.0 | 0.00 | 0.00 | 0.00 | 44 | 1025.3 |
| 20260506062038 | 56 | 258 | 0.0 | 0.0 | 0.00 | 0.00 | 0.00 | 43 | 1024.8 |
| 20260506061535 | 56 | 265 | 0.0 | 0.0 | 0.00 | 0.00 | 0.00 | 43 | 1025.3 |
| 20260506061529 | 56 | 293 | 0.0 | 0.0 | 0.00 | 0.00 | 0.00 | 43 | 1024.8 |
| 20260506060522 | 57 | 303 | 0.0 | 0.0 | 0.00 | 0.00 | 0.00 | 43 | 1024.8 |
| 20260506050926 | 59 | 248 | 0.0 | 0.0 | 0.00 | 0.00 | 0.00 | 39 | 1024.1 |
| 20260506050419 | 59 | 262 | 0.0 | 0.0 | 0.00 | 0.00 | 0.00 | 39 | 1024.1 |
| 20260506044905 | 60 | 274 | 0.0 | 0.0 | 0.00 | 0.00 | 0.00 | 38 | 1024.1 |
| 20260506044859 | 60 | 235 | 0.0 | 0.0 | 0.00 | 0.00 | 0.00 | 36 | 1023.8 |
| 20260506043854 | 60 | 243 | 0.0 | 0.0 | 0.00 | 0.00 | 0.00 | 36 | 1024.1 |
| 20260506043349 | 61 | 241 | 0.0 | 0.0 | 0.00 | 0.00 | 0.00 | 36 | 1024.1 |
| 20260506043344 | 61 | 271 | 0.0 | 0.0 | 0.00 | 0.00 | 0.00 | 36 | 1024.1 |
| 20260506042338 | 61 | 277 | 0.0 | 0.0 | 0.00 | 0.00 | 0.00 | 36 | 1023.8 |
| 20260506041831 | 61 | 271 | 0.0 | 0.0 | 0.00 | 0.00 | 0.00 | 34 | 1023.5 |
| 20260506041326 | 62 | 283 | 0.0 | 0.0 | 0.00 | 0.00 | 0.00 | 33 | 1023.5 |
| 20260506040823 | 62 | 231 | 0.0 | 0.0 | 0.00 | 0.00 | 0.00 | 33 | 1023.5 |
| 20260506040315 | 62 | 273 | 0.0 | 0.0 | 0.00 | 0.00 | 0.00 | 33 | 1023.5 |
| 20260506035810 | 62 | 237 | 0.0 | 0.0 | 0.00 | 0.00 | 0.00 | 32 | 1023.5 |
| 20260506035307 | 62 | 208 | 0.0 | 0.0 | 0.00 | 0.00 | 0.00 | 32 | 1023.5 |
| 20260506035301 | 62 | 234 | 0.0 | 0.0 | 0.00 | 0.00 | 0.00 | 32 | 1023.5 |
| 20260506034254 | 62 | 294 | 0.0 | 0.0 | 0.00 | 0.00 | 0.00 | 32 | 1023.5 |
| 20260506033750 | 62 | 150 | 0.0 | 0.0 | 0.00 | 0.00 | 0.00 | 32 | 1023.5 |
| 20260506033244 | 62 | 241 | 0.0 | 0.0 | 0.00 | 0.00 | 0.00 | 32 | 1023.5 |
| 20260506032738 | 62 | 210 | 0.0 | 0.0 | 0.00 | 0.00 | 0.00 | 32 | 1023.1 |
| 20260506032235 | 62 | 272 | 0.0 | 0.9 | 0.00 | 0.00 | 0.00 | 32 | 1023.1 |
| 20260506031729 | 62 | 198 | 0.0 | 0.0 | 0.00 | 0.00 | 0.00 | 32 | 1023.1 |
| 20260506031723 | 62 | 270 | 0.0 | 0.0 | 0.00 | 0.00 | 0.00 | 32 | 1023.1 |
| 20260506030719 | 62 | 246 | 0.0 | 0.0 | 0.00 | 0.00 | 0.00 | 32 | 1023.1 |
| 20260506030713 | 62 | 256 | 0.0 | 0.0 | 0.00 | 0.00 | 0.00 | 32 | 1023.1 |
| 20260506025706 | 62 | 164 | 0.0 | 0.0 | 0.00 | 0.00 | 0.00 | 32 | 1022.8 |
| 20260506025202 | 62 | 220 | 0.0 | 0.0 | 0.00 | 0.00 | 0.00 | 32 | 1023.1 |
| 20260506024656 | 62 | 225 | 0.0 | 0.0 | 0.00 | 0.00 | 0.00 | 32 | 1022.8 |
| 20260506024153 | 63 | 256 | 0.0 | 0.0 | 0.00 | 0.00 | 0.00 | 32 | 1022.8 |
| 20260506023647 | 63 | 186 | 0.0 | 0.0 | 0.00 | 0.00 | 0.00 | 31 | 1022.8 |
| 20260506023140 | 63 | 221 | 0.0 | 0.0 | 0.00 | 0.00 | 0.00 | 31 | 1022.8 |
| 20260506022635 | 63 | 248 | 0.0 | 0.0 | 0.00 | 0.00 | 0.00 | 31 | 1022.8 |
| 20260506022131 | 64 | 320 | 0.0 | 0.9 | 0.00 | 0.00 | 0.00 | 31 | 1022.8 |
| 20260506021624 | 64 | 0 | 0.0 | 0.9 | 0.00 | 0.00 | 0.00 | 31 | 1022.4 |
| 20260506021119 | 64 | 228 | 0.0 | 0.0 | 0.00 | 0.00 | 0.00 | 31 | 1022.4 |
| 20260506020615 | 64 | 258 | 0.0 | 0.0 | 0.00 | 0.00 | 0.00 | 31 | 1022.4 |
| 20260506020109 | 64 | 243 | 0.0 | 0.0 | 0.00 | 0.00 | 0.00 | 31 | 1022.4 |
| 20260506015604 | 64 | 242 | 0.0 | 0.0 | 0.00 | 0.00 | 0.00 | 30 | 1022.1 |
| 20260506015100 | 64 | 248 | 0.0 | 0.0 | 0.00 | 0.00 | 0.00 | 30 | 1022.1 |
| 20260506014553 | 64 | 251 | 0.0 | 0.0 | 0.00 | 0.00 | 0.00 | 30 | 1022.4 |
| 20260506014048 | 65 | 243 | 0.0 | 0.0 | 0.00 | 0.00 | 0.00 | 30 | 1022.4 |
| 20260506013543 | 65 | 251 | 0.0 | 0.0 | 0.00 | 0.00 | 0.00 | 32 | 1022.4 |
| 20260506013037 | 65 | 210 | 0.0 | 0.0 | 0.00 | 0.00 | 0.00 | 32 | 1022.4 |
| 20260506012532 | 66 | 214 | 0.0 | 0.0 | 0.00 | 0.00 | 0.00 | 32 | 1022.4 |
| 20260506012029 | 66 | 196 | 0.0 | 0.0 | 0.00 | 0.00 | 0.00 | 31 | 1022.4 |
| 20260506011521 | 67 | 220 | 0.0 | 0.0 | 0.00 | 0.00 | 0.00 | 32 | 1022.4 |
| 20260506011015 | 67 | 216 | 0.0 | 0.0 | 0.00 | 0.00 | 0.00 | 31 | 1022.1 |
| 20260506010512 | 67 | 213 | 0.0 | 0.0 | 0.00 | 0.00 | 0.00 | 31 | 1022.4 |
| 20260506010505 | 67 | 244 | 0.0 | 0.0 | 0.00 | 0.00 | 0.00 | 31 | 1022.4 |
| 20260506005459 | 67 | 227 | 0.0 | 0.0 | 0.00 | 0.00 | 0.00 | 31 | 1022.1 |
| 20260506004955 | 67 | 229 | 0.0 | 0.0 | 0.00 | 0.00 | 0.00 | 32 | 1022.4 |
| 20260506004449 | 67 | 215 | 0.0 | 0.0 | 0.00 | 0.00 | 0.00 | 31 | 1022.1 |
| 20260506003944 | 67 | 247 | 0.0 | 0.0 | 0.00 | 0.00 | 0.00 | 30 | 1022.1 |
| 20260506003440 | 66 | 253 | 0.0 | 0.0 | 0.00 | 0.00 | 0.00 | 30 | 1022.1 |
| 20260506002932 | 66 | 242 | 0.0 | 0.0 | 0.00 | 0.00 | 0.00 | 31 | 1022.1 |
| 20260506002428 | 66 | 217 | 0.0 | 0.9 | 0.00 | 0.00 | 0.00 | 31 | 1022.1 |
| 20260506001924 | 66 | 225 | 0.0 | 0.9 | 0.00 | 0.00 | 0.00 | 33 | 1022.1 |
| 20260506001417 | 66 | 276 | 0.0 | 0.9 | 0.00 | 0.00 | 0.00 | 32 | 1021.8 |
| 20260506000912 | 66 | 244 | 0.0 | 0.0 | 0.00 | 0.00 | 0.00 | 32 | 1022.1 |
| 20260506000409 | 66 | 187 | 0.0 | 0.0 | 0.00 | 0.00 | 0.00 | 33 | 1022.1 |
| 20260505235902 | 67 | 156 | 0.0 | 0.0 | 0.00 | 0.00 | 0.00 | 31 | 1022.1 |
| 20260505235356 | 67 | 247 | 0.0 | 0.0 | 0.00 | 0.00 | 0.00 | 31 | 1022.1 |
| 20260505234852 | 67 | 273 | 0.0 | 0.0 | 0.00 | 0.00 | 0.00 | 31 | 1022.1 |
| 20260505234346 | 67 | 193 | 0.0 | 0.0 | 0.00 | 0.00 | 0.00 | 31 | 1022.1 |
| 20260505234341 | 67 | 253 | 0.0 | 0.0 | 0.00 | 0.00 | 0.00 | 31 | 1022.1 |
| 20260505233336 | 67 | 258 | 0.0 | 0.0 | 0.00 | 0.00 | 0.00 | 31 | 1022.1 |
| 20260505232830 | 67 | 242 | 0.0 | 0.0 | 0.00 | 0.00 | 0.00 | 30 | 1022.1 |
| 20260505232325 | 68 | 349 | 0.0 | 0.0 | 0.00 | 0.00 | 0.00 | 30 | 1022.1 |
| 20260505231820 | 67 | 250 | 0.0 | 0.0 | 0.00 | 0.00 | 0.00 | 31 | 1022.1 |
| 20260505231314 | 67 | 287 | 0.0 | 0.0 | 0.00 | 0.00 | 0.00 | 29 | 1021.8 |
| 20260505230809 | 67 | 231 | 0.0 | 0.0 | 0.00 | 0.00 | 0.00 | 31 | 1022.1 |
| 20260505230305 | 67 | 172 | 0.0 | 0.0 | 0.00 | 0.00 | 0.00 | 31 | 1022.1 |
| 20260505230259 | 67 | 255 | 0.0 | 0.0 | 0.00 | 0.00 | 0.00 | 30 | 1022.1 |
| 20260505225253 | 67 | 245 | 0.0 | 0.0 | 0.00 | 0.00 | 0.00 | 29 | 1022.1 |
| 20260505224748 | 67 | 247 | 0.0 | 0.0 | 0.00 | 0.00 | 0.00 | 30 | 1022.4 |
| 20260505224243 | 67 | 239 | 0.0 | 0.0 | 0.00 | 0.00 | 0.00 | 31 | 1022.4 |
| 20260505223738 | 67 | 204 | 0.0 | 0.0 | 0.00 | 0.00 | 0.00 | 31 | 1022.1 |
| 20260505223233 | 67 | 223 | 0.0 | 0.0 | 0.00 | 0.00 | 0.00 | 31 | 1022.1 |